COSMOS 2251 DEB, 34409

Orbit data source: Space-Track

COSMOS 2251 DEB, 34409 is space debris in LEO originally from a launch on Wed, 16 Jun 1993 UTC launched from the Plesetsk Missile And Space Complex (PKMTR). The debris from Iridium 33, an American commercial communications satellite, has been tracked extensively since its accidental collision with the defunct Russian satellite Cosmos 2251 in 2009. This event, occurring at high speed in low Earth orbit (LEO), generated thousands of pieces of space debris, significantly increasing the risk of further collisions. The Iridium 33 debris cloud has impacted space traffic management and orbital debris mitigation strategies, making it a subject of ongoing study in space situational awareness.

Loading next visibility...
Identifier
34409, 1993-036RA
Orbit
LEO
Country
Flag of CISCIS
Related business
Manufacturer
Unknown
Mission
Spacecraft
Bus & Motor
Unknown
Mass
Unknown
Launch date (UTC)
1993-06-16 (33 years ago)
Launch vehicle
Unknown
Launch site
Plesetsk Missile And Space Complex (PKMTR)
Object type
Payload
Rocket body
Debris
Shape & HBR
Unknown shape, 0.1 m
Radar Cross Section
Medium (>0.1 m² and <1 m²)

Expand to show TLE details & history
Last TLE update: 6 hours ago

TLE from 6 hours ago
0 COSMOS 2251 DEB
1 34409U 93036RA  26236.63531042  .00000420  00000-0  93078-4 0  9991
2 34409  74.0633 182.5295 0080299 192.5717 342.2257 14.58459794929086
Epoch: 2026-08-24T15:14Z
TLE epoch observation values (Epoch: 2026-08-24T15:14:50.820Z)
Latitude
5.19513°
Longitude
159.42392°
Altitude
646.191 km
Speed
7.564 km/s
True Right ascension
00h 04m 11s
True Declination
5° 09' 49"
Sunlit
Object was in full shadow at epoch
Visualization orbit readout
Latitude
Unknown
Longitude
Unknown
Altitude
Unknown
Speed
Unknown
Apparent Right ascension
Unknown
Apparent Declination
Unknown
Sunlit
N/A
Visualization observer readout
Local Sidereal Time
12:09:41
Azimuth
Unknown
Elevation
Unknown
Doppler factor
Unknown
Orbital elements
Apogee altitude
752.551 km
Perigee altitude
638.946 km
Semi-major axis
7,073.885 km
Eccentricity
0.00803
Inclination
74.0633°
RAAN
182.5295°
Arg. of periapsis
192.5717°
True anomaly
341.9421°
Mean anomaly
342.2257°
Eccentric anomaly
342.08417°
Mean motion
3.64801 °/min
Orbital period
98.68 mins
BSTAR
0.000093078
Loading maneuver chart data...
Computing Atmospheric mass density...

Documentation

Showing up to 5 results
|